sat.trackr.live / text

‹ back to catalog

STARLINK-30268

NORAD 57531 · 2023-115L

PAYLOAD ACTIVE UNKNOWN

§ Identity

Operator
Country
US
Launch date
2023-08-08
Launch site
AFWTR
Launch vehicle
Mass (kg)
RCS (m²)

Purposes: comms

External: N2YO · Heavens-Above · Gunter

§ Orbital elements

Epoch: 2026-09-20T12:28:50.298240Z

Period
94.27 min
Inclination
43.0033°
Eccentricity
0.0001198
Mean motion
15.27576224 rev/d
Perigee alt
482.2 km
Apogee alt
483.9 km
Semi-major
6,861.2 km
B*
2.2379e-5
RAAN
341.6922°
Arg perigee
260.8261°
Mean anomaly
99.2455°
Rev number
17,214

§ Raw data

STARLINK-302681 57531U 23115L   26263.52002660  .00000354  00000+0  22379-4 0  99912 57531  43.0033 341.6922 0001198 260.8261  99.2455 15.27576224172147

JSON: /api/v1/satellites/57531 · /tle

For live sub-satellite position, see the globe view (requires WebGL).

§ Visibility from observer

Set your observer location to see the next 7 days of passes ≥ 10°. The values pass through the URL so the page stays shareable.

No JS? Fill the form by hand. The geolocation button needs JavaScript.